[[{"header":{"parameterUnit":"m.s-1","parameterCategory":1,"la1":30.2991,"la2":30.254,"lo1":-89.0895,"lo2":-89.0444,"dy":0.0017,"dx":0.0017,"nx":28,"ny":28,"refTime":"2025-08-03T03:00:00:Z","depth":0,"parameterNumber":2,"parameterNumberName":"U-component_of_WINDS"},"data":[0,0,0,0,0,0,0,0,0,0,0,0,0,0,0,0,0,0,0,0,0,0,0,0,0,0,0,0,0,0,0,0,0,0,0,0,0,0,0,0,0,0,0,0,0,0,0,0,0,0,0,0,0,0,0,0,0,0,0.225,0.2251,0,0.2335,0.2336,0.2337,0.243,0.2431,0.2432,0.2434,0.2516,0.2517,0.2518,0,0,0,0,0,0,0,0,0,0,0,0,0,0.2165,0.2166,0.225,0.2251,0.2252,0.2335,0.2336,0.2337,0.243,0.2431,0.2433,0.2434,0.2516,0.2517,0.2518,0,0,0,0,0,0,0,0,0,0,0,0,0,0.2221,0.2167,0.225,0.2308,0.2314,0.2335,0.2336,0.2338,0.2429,0.2431,0.2433,0.2435,0.2515,0.2517,0.2518,0.2487,0,0,0.2523,0.2523,0,0,0,0,0,0,0,0,0.2218,0.2224,0.2299,0.2304,0.2311,0.2374,0.2337,0.2387,0.2429,0.2385,0.2434,0.2436,0.2467,0.2472,0.2484,0.249,0.2494,0.2523,0.2523,0.2524,0.2524,0,0,0,0,0,0,0,0.2214,0.2221,0.2284,0.23,0.2307,0.233,0.234,0.2347,0.2414,0.2389,0.2396,0.2405,0.2471,0.2482,0.2486,0.2495,0.2523,0.2524,0.2525,0.2525,0.2481,0.2479,0,0,0,0,0,0,0.2202,0.2217,0.2281,0.2286,0.2269,0.2329,0.2341,0.2352,0.2414,0.2425,0.2404,0.2409,0.2479,0.2485,0.249,0.2457,0.2524,0.2525,0.2526,0.2483,0.2481,0.2479,0,0,0,0,0,0,0.2199,0.2206,0.2278,0.2254,0.2264,0.2329,0.234,0.2352,0.2364,0.2425,0.2437,0.2403,0.2481,0.2488,0.2487,0.2461,0.2526,0.2527,0.2486,0.2483,0.248,0.2391,0,0,0,0,0,0,0.2197,0.2205,0.2194,0.2253,0.2265,0.2274,0.2339,0.2353,0.2367,0.2375,0.2427,0.2438,0.2483,0.2485,0.2489,0.2464,0.2528,0.2488,0.2484,0.2481,0.2397,0.2385,0.2376,0,0,0,0,0,0.2193,0.2164,0.2193,0.22,0.2253,0.2272,0.228,0.2333,0.2364,0.2353,0.2393,0.2436,0.2464,0.2484,0.2489,0.2465,0.249,0.2485,0.2481,0.2401,0.2388,0.2376,0,0,0,0,0,0,0.2098,0.2173,0.2205,0.2195,0.2227,0.2288,0.2276,0.2317,0.2339,0.2346,0.241,0.2421,0.2413,0.2439,0.246,0.2438,0.2483,0.248,0.2421,0.2408,0.2398,0.2391,0.253,0,0,0,0,0,0.2077,0.2087,0.2152,0.2136,0.2151,0.221,0.2221,0.226,0.2295,0.2308,0.2347,0.2378,0.2394,0.2403,0.2421,0.2402,0.2414,0.2388,0.2377,0.2369,0.2364,0.2356,0.2345,0.2464,0.2464,0.2464,0,0,0.2031,0.2073,0.2076,0.2118,0.2148,0.2156,0.2221,0.2227,0.2234,0.2308,0.2311,0.2341,0.238,0.237,0.2368,0.2392,0.2335,0.2363,0.2355,0.2356,0.235,0.2339,0.2329,0.2461,0.2461,0.2462,0,0,0.1953,0.1986,0.1977,0.2006,0.205,0.2091,0.2088,0.2144,0.2168,0.2172,0.2228,0.2237,0.2263,0.2289,0.2305,0.2239,0.228,0.2243,0.2188,0.218,0.2171,0.2163,0.2139,0.2129,0.2239,0.2239,0.2239,0,0.189,0.1906,0.1967,0.197,0.1987,0.2058,0.2049,0.2074,0.2121,0.2131,0.2158,0.2193,0.2224,0.2222,0.2206,0.2217,0.2216,0.2236,0.2167,0.216,0.2153,0.2131,0.2122,0.2234,0.2234,0.2235,0.2235,0,0.1827,0.1837,0.1825,0.1871,0.1887,0.1884,0.1944,0.1952,0.1991,0.2028,0.2031,0.2072,0.21,0.2103,0.2139,0.2105,0.2119,0.2156,0.2202,0.2136,0.2116,0.2108,0.2227,0.2229,0.223,0.2231,0,0,0.1688,0.177,0.1764,0.1786,0.1842,0.1851,0.1852,0.1881,0.1887,0.1918,0.192,0.1941,0.1977,0.1995,0.2036,0.2028,0.1974,0.2066,0.2068,0.2047,0.1939,0.191,0.1899,0.2002,0.2001,0.2,0.1936,0,0.1618,0.1625,0.1681,0.1671,0.1682,0.175,0.1751,0.1785,0.182,0.1834,0.1873,0.1887,0.1933,0.1945,0.1941,0.1981,0.1952,0.1987,0.2003,0.2003,0.1989,0.1889,0.1858,0.1796,0.1928,0.1927,0.1926,0,0.1537,0.1565,0.1557,0.1615,0.1621,0.1621,0.1653,0.1666,0.1705,0.1732,0.1754,0.18,0.1805,0.185,0.1856,0.1878,0.1889,0.1909,0.1908,0.191,0.1959,0.1887,0.1777,0.1767,0.1915,0.1916,0.1916,0,0.1436,0.1472,0.1472,0.1489,0.1556,0.1555,0.1582,0.1624,0.1639,0.1667,0.1677,0.1704,0.1718,0.1738,0.179,0.1819,0.1791,0.184,0.1812,0.181,0.1801,0.1801,0.169,0.181,0.181,0.181,0.181,0,0.1352,0.1343,0.1428,0.1428,0.1421,0.1486,0.1477,0.1511,0.1549,0.1556,0.1617,0.1622,0.1692,0.1704,0.1746,0.1744,0.1751,0.1771,0.1782,0.1765,0.1762,0.1772,0.1777,0.1808,0.1808,0.1809,0.1809,0,0.1236,0.1293,0.1298,0.1362,0.1378,0.137,0.1424,0.1427,0.1467,0.1476,0.1481,0.1544,0.1563,0.1618,0.1649,0.1677,0.1664,0.1685,0.165,0.1657,0.1626,0.1627,0.1515,0.1504,0.1631,0.163,0.1629,0,0.1178,0.1174,0.1239,0.1249,0.1274,0.129,0.1306,0.1369,0.1383,0.143,0.1426,0.145,0.1473,0.1499,0.1547,0.1572,0.1593,0.1553,0.1597,0.1581,0.1592,0.1591,0.1591,0.1542,0.154,0.1539,0.1538,0,0.1068,0.1097,0.1119,0.115,0.1168,0.1195,0.1226,0.1231,0.1302,0.1314,0.1336,0.1353,0.1387,0.141,0.1443,0.1471,0.1515,0.1524,0.1519,0.15,0.148,0.149,0.1623,0.1525,0.1527,0.1528,0.1528,0.1529,0.098,0.098,0.1026,0.1048,0.1078,0.1106,0.1112,0.1154,0.1173,0.1207,0.1244,0.1261,0.1302,0.1352,0.1376,0.139,0.1414,0.1406,0.1404,0.14,0.1392,0.148,0.1396,0.1396,0.1397,0.1397,0.1397,0,0.0873,0.0907,0.0927,0.0969,0.0986,0.103,0.1067,0.1078,0.1093,0.1128,0.115,0.1174,0.1197,0.1248,0.1276,0.1277,0.1298,0.1282,0.1281,0.1287,0.137,0.1371,0.1264,0.1264,0.1264,0.1264,0.1264,0.1264,0.0819,0.0822,0.0856,0.0875,0.0909,0.0927,0.0944,0.097,0.0999,0.1024,0.1044,0.1078,0.112,0.1151,0.1174,0.1189,0.1195,0.1172,0.1193,0.1268,0.1281,0.1293,0.1295,0.1173,0.1173,0.1109,0.1109,0.1108]},{"header":{"parameterUnit":"m.s-1","parameterCategory":1,"la1":30.2991,"la2":30.254,"lo1":-89.0895,"lo2":-89.0444,"dy":0.0017,"dx":0.0017,"nx":28,"ny":28,"refTime":"2025-08-03T03:00:00:Z","depth":0,"parameterNumber":3,"parameterNumberName":"V-component_of_WINDS"},"data":[0,0,0,0,0,0,0,0,0,0,0,0,0,0,0,0,0,0,0,0,0,0,0,0,0,0,0,0,0,0,0,0,0,0,0,0,0,0,0,0,0,0,0,0,0,0,0,0,0,0,0,0,0,0,0,0,0,0,-3.3716,-3.3717,0,-3.3802,-3.3803,-3.3804,-3.3769,-3.3767,-3.3765,-3.3763,-3.3849,-3.3853,-3.3857,0,0,0,0,0,0,0,0,0,0,0,0,0,-3.3519,-3.3523,-3.3716,-3.3717,-3.3718,-3.3802,-3.3803,-3.3804,-3.3769,-3.3767,-3.3764,-3.3762,-3.3848,-3.3853,-3.3858,0,0,0,0,0,0,0,0,0,0,0,0,0,-3.3605,-3.3524,-3.3716,-3.3711,-3.3711,-3.3802,-3.3803,-3.3805,-3.377,-3.3767,-3.3764,-3.3761,-3.3846,-3.3852,-3.3858,-3.3958,0,0,-3.3878,-3.388,0,0,0,0,0,0,0,0,-3.36,-3.3612,-3.3711,-3.3711,-3.3712,-3.3772,-3.3765,-3.3856,-3.3771,-3.3748,-3.3763,-3.3759,-3.3826,-3.3833,-3.3856,-3.3962,-3.3966,-3.3878,-3.3882,-3.3885,-3.3887,0,0,0,0,0,0,0,-3.3594,-3.3608,-3.375,-3.3712,-3.3713,-3.3704,-3.3712,-3.3782,-3.3803,-3.3749,-3.3747,-3.3758,-3.3826,-3.385,-3.3858,-3.3967,-3.3878,-3.3884,-3.3887,-3.389,-3.4158,-3.4162,0,0,0,0,0,0,-3.3588,-3.3604,-3.3747,-3.3753,-3.3647,-3.371,-3.3719,-3.3756,-3.3802,-3.3806,-3.376,-3.3756,-3.3841,-3.3851,-3.3861,-3.3981,-3.3885,-3.3891,-3.3894,-3.4155,-3.4159,-3.4163,0,0,0,0,0,0,-3.3584,-3.3602,-3.3744,-3.3678,-3.3695,-3.3716,-3.3757,-3.3759,-3.3784,-3.381,-3.3813,-3.3782,-3.3839,-3.3852,-3.3934,-3.3983,-3.3893,-3.3899,-3.4151,-3.4156,-3.4161,-3.4221,0,0,0,0,0,0,-3.3579,-3.36,-3.3639,-3.3679,-3.3699,-3.3817,-3.376,-3.3763,-3.3795,-3.379,-3.3831,-3.3835,-3.3838,-3.3925,-3.394,-3.399,-3.3904,-3.4147,-3.4153,-3.4159,-3.4215,-3.4228,-3.4239,0,0,0,0,0,-3.3572,-3.3653,-3.3642,-3.3659,-3.3748,-3.382,-3.3831,-3.3833,-3.3799,-3.3838,-3.3854,-3.3834,-3.3975,-3.3934,-3.3951,-3.4003,-3.4144,-3.4151,-3.4159,-3.421,-3.4225,-3.4238,0,0,0,0,0,0,-3.3618,-3.3658,-3.3646,-3.3742,-3.3778,-3.3814,-3.3863,-3.3849,-3.3895,-3.3888,-3.3888,-3.3897,-3.3982,-3.4,-3.3954,-3.4102,-3.4054,-3.4065,-3.4087,-3.4102,-3.4113,-3.4108,-3.3909,0,0,0,0,0,-3.364,-3.3696,-3.3727,-3.3808,-3.3827,-3.3842,-3.3873,-3.3871,-3.3908,-3.3923,-3.3946,-3.3982,-3.4034,-3.4069,-3.4118,-3.4217,-3.4225,-3.4261,-3.4273,-3.4282,-3.4293,-3.4345,-3.4362,-3.4188,-3.4187,-3.4187,0,0,-3.3685,-3.3713,-3.3748,-3.3818,-3.3846,-3.3903,-3.3855,-3.3918,-3.396,-3.3932,-3.4012,-3.4029,-3.4069,-3.416,-3.4201,-3.4178,-3.4342,-3.4292,-3.4299,-3.4305,-3.4355,-3.4371,-3.4386,-3.4193,-3.4192,-3.4191,0,0,-3.3796,-3.3823,-3.3894,-3.3923,-3.3965,-3.3974,-3.3991,-3.4029,-3.404,-3.4119,-3.41,-3.4149,-3.4239,-3.4269,-3.4295,-3.4416,-3.4398,-3.4432,-3.4494,-3.4545,-3.4559,-3.4571,-3.4614,-3.463,-3.4441,-3.4441,-3.4442,0,-3.3847,-3.3933,-3.3932,-3.3997,-3.4028,-3.4005,-3.4076,-3.4104,-3.416,-3.4181,-3.4155,-3.4267,-3.4292,-3.4389,-3.4419,-3.4441,-3.446,-3.4428,-3.4557,-3.4569,-3.4581,-3.4622,-3.4638,-3.4445,-3.4445,-3.4444,-3.4444,0,-3.3993,-3.4052,-3.4104,-3.416,-3.4196,-3.4264,-3.4273,-3.4309,-3.4303,-3.4315,-3.4396,-3.4425,-3.448,-3.4502,-3.4497,-3.4599,-3.4583,-3.4557,-3.4509,-3.4601,-3.464,-3.4656,-3.4451,-3.4449,-3.4448,-3.4447,0,0,-3.4138,-3.4191,-3.421,-3.4234,-3.4279,-3.4324,-3.439,-3.4444,-3.4476,-3.4514,-3.4569,-3.4645,-3.4621,-3.4651,-3.4649,-3.4694,-3.4787,-3.4662,-3.4663,-3.4685,-3.49,-3.4921,-3.4939,-3.4775,-3.4778,-3.4781,-3.4897,0,-3.4253,-3.4369,-3.437,-3.4477,-3.4531,-3.451,-3.4567,-3.46,-3.4612,-3.4659,-3.4672,-3.4726,-3.469,-3.4708,-3.4751,-3.4767,-3.4831,-3.4758,-3.4826,-3.4829,-3.4818,-3.4959,-3.4981,-3.509,-3.4912,-3.4915,-3.4917,0,-3.4404,-3.4448,-3.456,-3.4595,-3.4618,-3.467,-3.4719,-3.4765,-3.48,-3.4806,-3.4839,-3.4829,-3.4895,-3.4844,-3.4935,-3.4885,-3.4913,-3.4924,-3.4928,-3.4936,-3.4879,-3.4971,-3.5124,-3.5141,-3.494,-3.4939,-3.4937,0,-3.4499,-3.4586,-3.4664,-3.4686,-3.4729,-3.4765,-3.4785,-3.4818,-3.485,-3.4892,-3.4913,-3.4962,-3.4989,-3.5027,-3.503,-3.4993,-3.5121,-3.507,-3.5127,-3.5127,-3.5156,-3.5155,-3.5317,-3.5172,-3.5172,-3.5172,-3.5171,0,-3.4629,-3.4698,-3.4708,-3.4756,-3.4833,-3.4832,-3.4908,-3.4924,-3.4953,-3.5004,-3.4987,-3.5034,-3.5035,-3.5084,-3.5086,-3.516,-3.5173,-3.5178,-3.5179,-3.5181,-3.518,-3.52,-3.5192,-3.5176,-3.5175,-3.5174,-3.5173,0,-3.4749,-3.4758,-3.4842,-3.4875,-3.4885,-3.4941,-3.4969,-3.5014,-3.5024,-3.5088,-3.5102,-3.5117,-3.5173,-3.518,-3.5245,-3.5246,-3.5336,-3.5327,-3.5324,-3.5323,-3.5379,-3.5374,-3.5561,-3.5585,-3.5424,-3.5425,-3.5427,0,-3.4832,-3.4885,-3.4924,-3.4956,-3.4978,-3.5031,-3.5063,-3.5063,-3.5098,-3.5142,-3.5182,-3.5236,-3.5279,-3.5369,-3.5385,-3.5434,-3.5427,-3.5489,-3.5435,-3.5435,-3.5429,-3.5426,-3.5431,-3.55,-3.5502,-3.5503,-3.5504,0,-3.4978,-3.4979,-3.5027,-3.5076,-3.5116,-3.5154,-3.519,-3.5218,-3.5222,-3.5261,-3.5318,-3.5352,-3.5418,-3.5471,-3.5519,-3.5538,-3.5522,-3.5521,-3.5537,-3.554,-3.5537,-3.554,-3.5354,-3.5517,-3.5516,-3.5515,-3.5514,-3.5514,-3.5083,-3.5129,-3.5163,-3.5216,-3.5243,-3.5277,-3.5321,-3.5336,-3.5384,-3.5438,-3.5434,-3.5497,-3.553,-3.5593,-3.5615,-3.5663,-3.5643,-3.5665,-3.5671,-3.5677,-3.5683,-3.5528,-3.5672,-3.5671,-3.5671,-3.5671,-3.567,0,-3.5229,-3.5249,-3.5298,-3.5349,-3.5391,-3.5371,-3.541,-3.5446,-3.5501,-3.5534,-3.5576,-3.5641,-3.5692,-3.5712,-3.5762,-3.5797,-3.5791,-3.581,-3.5808,-3.5813,-3.5698,-3.568,-3.5814,-3.5814,-3.5814,-3.5814,-3.5814,-3.5814,-3.5309,-3.5386,-3.5391,-3.548,-3.55,-3.5562,-3.5585,-3.5616,-3.5641,-3.5715,-3.5757,-3.577,-3.5797,-3.5848,-3.5894,-3.5898,-3.5918,-3.5941,-3.5942,-3.5835,-3.5821,-3.5807,-3.579,-3.5945,-3.5945,-3.6052,-3.6053,-3.6054]}]]